Regional Weather Roundup
Issued by NWS

Home | Current Version | Previous Version | Graphics & Text | Print | Product List | Glossary Off
Versions: 1 2 3 4 5 6 7 8 9 10 11 12 13 14 15 16 17 18 19 20 21 22 23 24 25 26 27 28 29 30 31 32 33 34 35 36 37 38 39 40 41 42 43 44 45 46 47 48 49 50

000
ASUS43 KMPX 240310
RWRMN
WEATHER ROUNDUP FOR MINNESOTA
NATIONAL WEATHER SERVICE TWIN CITIES/CHANHASSEN MN
1000 PM CDT SUN APR 23 2017


NOTE: "FAIR" INDICATES FEW OR NO CLOUDS BELOW 12,000 FEET WITH NO
SIGNIFICANT WEATHER AND/OR OBSTRUCTIONS TO VISIBILITY. N/A MEANS
CURRENT SKY AND/OR WEATHER CONDITIONS ARE NOT AVAILABLE.

MNZ060>063-068>070-240400-
   Twin Cities Metro

CITY           SKY/WX    TMP DP  RH WIND       PRES   REMARKS
TWIN CITIES    MOCLDY    56  41  57 NE12      29.90R
ST PAUL        CLOUDY    57  44  62 NE8       29.91R
CRYSTAL        PTCLDY    49  36  61 NE5       29.91R
BLAINE         PTCLDY    48  39  71 NE6       29.92R
LAKEVILLE      CLEAR     55  36  47 CALM      29.89R
EDEN PRAIRIE   CLEAR     56  41  57 NE12      29.88R
SOUTH ST PAUL  PTCLDY    59  44  57 N7        29.90R
LAKE ELMO      FAIR      52  43  71 NE7       29.92R
$$
MNZ001>005-007-008-013>017-022>024-027-028-240400-
   Northwest Minnesota

CITY           SKY/WX    TMP DP  RH WIND       PRES   REMARKS
BEMIDJI        DRIZZLE   32  29  89 E17       29.99F WCI  21
HALLOCK        CLOUDY    36  16  44 E12G17    30.03F
ROSEAU         CLOUDY    36  21  55 NE13      30.05F
WARROAD        CLOUDY    37  19  48 E16       30.06F
THIEF RVR FALL FLURRIES  30  28  92 NE16      30.01F WCI  19
CROOKSTON      MIX PCPN  32  30  93 E17G23    29.99F WCI  21
FOSSTON        CLOUDY    30  27  86 E13G18    29.97S WCI  20
DETROIT LAKES  CLOUDY    36  32  87 E13G21    29.92F
MOORHEAD       CLOUDY    37  32  81 E15       29.90F
PARK RAPIDS    CLOUDY    35  30  82 E12G24    29.95S WCI  27
MAHNOMEN       MOCLDY    34  30  86 E21       29.93F WCI  22
$$
MNZ006-009>011-018-025>026-240400-
   North Central Minnesota

CITY           SKY/WX    TMP DP  RH WIND       PRES   REMARKS
BAUDETTE       CLOUDY    35  14  42 E7        30.07S WCI  29
FLAG ISLAND    CLOUDY    36  12  38 E7        30.09F
INTL FALLS     CLOUDY    34  23  64 SE3       30.08S
WASKISH        FLURRIES  30  28  93 E10       30.05F WCI  21
BIG FORK       CLOUDY    32  28  86 NE5       30.05F WCI  27
LONGVILLE      CLOUDY    34  30  86 E6        29.99F WCI  29
GRAND RAPIDS   CLOUDY    33  29  85 E8        30.05S WCI  26
CRANE LAKE     CLOUDY    34  21  60 CALM      30.10F
ORR            CLOUDY    32  27  80 MISG      30.05S
COOK           CLOUDY    32  30  93 CALM      30.08R
WALKER         CLOUDY    34  30  86 E14G21    29.99F WCI  24
$$
MNZ012-019>021-037-240400-
   Northeast Minnesota

CITY           SKY/WX    TMP DP  RH WIND       PRES   REMARKS
DULUTH         MOCLDY    31  25  78 E17       30.05F WCI  19
ELY            CLOUDY    32  28  86 E7        30.08S WCI  26
HIBBING        CLOUDY    31  29  92 E10       30.05S WCI  22
EVELETH        CLOUDY    32  27  81 E6        30.07F WCI  27
DULUTH HARBOR  CLOUDY    36  30  80 NE26      30.09F
TWO HARBORS    CLOUDY    34  27  75 E10       30.08S WCI  26
SILVER BAY     CLOUDY    32  28  86 NE9       30.10S WCI  24
GRAND MARAIS     N/A     34  24  67 NE9       30.16F WCI  27
G MARAIS ARPRT CLOUDY    27  19  74 NE8       30.10F WCI  18
$$
MNZ029>031-032-039>041-046>048-054>057-064-240400-
   West Central Minnesota

CITY           SKY/WX    TMP DP  RH WIND       PRES   REMARKS
FERGUS FALLS   PTCLDY    39  34  81 E17G31    29.84F
WHEATON        CLOUDY    48  37  66 E22       29.81F
MORRIS         CLOUDY    46  37  71 E26G33    29.80F
ALEXANDRIA     PTCLDY    41  35  79 E22G30    29.88S
ELBOW LAKE     FAIR      42  36  78 E21G28    29.83F
WADENA         CLOUDY    37  32  81 E13G20    29.92S
GLENWOOD       PTCLDY    41  36  81 NE21G29   29.88R
APPLETON       CLOUDY    54  41  62 E18G26    29.79R
BENSON         MOCLDY    50  37  62 SE10      29.84R
ORTONVILLE     PTCLDY    54  43  66 E18G24    29.76S
MADISON        MOCLDY    59  36  41 SE12      29.77S
WILLMAR        FAIR      52  43  71 E15G23    29.86R
$$
MNZ033>034-036-042>043-049>051-058-059-240400-
   Central Minnesota

CITY           SKY/WX    TMP DP  RH WIND       PRES   REMARKS
ST CLOUD       PTCLDY    40  35  83 NE10      29.93R
SAUK CENTRE    FAIR      39  34  81 NE15G24   29.90S
PAYNESVILLE    PTCLDY    44  36  74 NE14      29.89S
AITKIN         CLOUDY    36  21  55 E13G22    29.98S
PINE RIVER     CLOUDY    36  30  80 E10       30.01S
BRAINERD       CLOUDY    35  27  72 E12       29.97S WCI  27
STAPLES        CLOUDY    36  30  80 E9G17     29.94S
LONG PRAIRIE   FAIR      37  32  81 N13G18    29.92S
LITTLE FALLS   PTCLDY    37  32  81 NE7       29.95S
LITCHFIELD     CLOUDY    52  41  66 E14G20    29.88R
BUFFALO        PTCLDY    46  36  67 NE12G20   29.91S
MAPLE LAKE     PTCLDY    46  38  75 NE13G20   29.92R
HUTCHINSON     CLOUDY    58  40  50 NE9       29.88R
$$
MNZ037-044-045-052-053-240400-
   East Central Minnesota

CITY           SKY/WX    TMP DP  RH WIND       PRES   REMARKS
PRINCETON      CLOUDY    43  34  70 NE12G21   29.95R
MORA           PTCLDY    36  30  80 E6        29.99S
CAMBRIDGE      CLOUDY    43  30  61 NE10G18   29.94R
RUSH CITY      CLOUDY    37  32  79 NE10G16   29.97S
MOOSE LAKE     MOCLDY    34  25  69 E8G20     30.00F WCI  27
HINCKLEY       FAIR      36  32  87 NE12G18   29.99S
CLOQUET        CLOUDY    32  25  74 E16G23    30.03F WCI  21
MCGREGOR       PTCLDY    34  27  75 E13G22    30.01F WCI  25
$$
MNZ071>073-080-081-089-090-097-098-240400-
   Southwest Minnesota

CITY           SKY/WX    TMP DP  RH WIND       PRES   REMARKS
MONTEVIDEO     MOCLDY    57  32  38 S8        29.79F
GRANITE FALLS  CLOUDY    60  33  36 SE12      29.81F
CANBY          CLOUDY    55  34  45 E8        29.78S
MARSHALL       CLEAR     57  32  38 SE10      29.80S
REDWOOD FALLS  CLEAR     59  32  36 S14       29.82S
OLIVIA         CLEAR     55  34  44 SE8       29.83S
PIPESTONE      CLOUDY    57  25  28 S13       29.81R
WINDOM         PTCLDY    55  30  38 SE10      29.86S
WORTHINGTON    CLOUDY    58  29  33 S13       29.85S
JACKSON        PTCLDY    57  30  35 S9        29.88S
TRACY          CLEAR     59  33  36 S10       29.82S
SLAYTON        PTCLDY    54  33  45 S12       29.84S
$$
MNZ065>067-074>077-082>085-091>093-240400-
   South Central Minnesota

CITY           SKY/WX    TMP DP  RH WIND       PRES   REMARKS
MANKATO        CLEAR     62  29  28 S8        29.89S
NEW ULM        CLEAR     57  30  35 S8        29.86S
ST JAMES       CLEAR     61  32  33 SE12      29.88S
FAIRMONT       CLEAR     53  33  46 S9        29.90R
GLENCOE        CLEAR     61  35  38 S5        29.86S
FARIBAULT      PTCLDY    61  32  33 S6        29.91R
OWATONNA       CLEAR     57  30  35 S8        29.91S
WASECA         CLEAR     54  32  43 S7        29.92R
ALBERT LEA     CLEAR     61  27  27 S8        29.92S
$$
MNZ078>079-086>088-094>096-240400-
   Southeast Minnesota

CITY           SKY/WX    TMP DP  RH WIND       PRES   REMARKS
ROCHESTER      PTCLDY    54  37  52 S9        29.94R
RED WING       PTCLDY    63  28  27 S6        29.90R
STANTON        CLEAR     56  33  41 S5        29.89R
DODGE CENTER   PTCLDY    55  36  47 S10       29.92S
WINONA         PTCLDY    55  37  50 CALM      29.94S
AUSTIN         CLEAR     57  34  41 S8        29.93S
PRESTON        PTCLDY    57  32  38 S9        29.95R
$$
ABBREVIATIONS USED IN REMARKS
   TC - TEMPERATURES IN CELSIUS
  WCI - WIND CHILL INDEX
   HX - HEAT INDEX
  VSB - VISIBILITY
$$




USA.gov is the U.S. government's official web portal to all federal, state and local government web resources and services.